Tracking 17856 objects as of 28-September-2016
HD Live streaming from Space Station
objects crossing your sky now

SL-14 R/B

Track SL-14 R/B now!
10-day predictions


NORAD ID: 16720
Int'l Code: 1986-034B
Perigee: 613.1 km
Apogee: 639.4 km
Inclination: 82.6 °
Period: 97.1 minutes
Semi major axis: 6997 km
RCS: 3.5564 m2 (large)
Launch date: May 15, 1986
Source: Commonwealth of Independent States (former USSR) (CIS)
Launch site: PLESETSK MISSILE AND SPACE COMPLEX (PKMTR)

Note: This is a ROCKET BODY
Your satellite tracking list
Your tracking list is empty





NASA's NSSDC Master Catalog

Two Line Element Set (TLE):
1 16720U 86034B   16270.15676503  .00000110  00000-0  10559-4 0  9992
2 16720  82.5528 127.6619 0018769 251.3297 245.2627 14.83249464640126
Source of the keplerian elements: AFSPC

N2YO: 460